Location: Home
(42.5358°N, 72.7383°W)
Time: 05:21:34
(UTC-05:00)

S-56A Canister/Altair - Pass Details

Date: 06 December 2021
Orbit: 633 x 2499 km, 38.9° (Epoch: 19 January)

Event Time Altitude Azimuth Distance (km) Brightness Sun altitude
Rises 20:15:54 0° 200° (SSW) 6,026 12.2 -43.0°
Reaches altitude 10° 20:21:18 10° 188° (S) 4,821 11.5 -44.0°
Enters shadow 20:23:35 14° 180° (S) 4,358 11.2 -44.4°
